FW8511 Weather Reports


Display with metric or nautical units.
time (UTC)temp
F
wind
direction
speed
MPH
gust
MPH
rain 1hr
in
rain 24hr
in
rain mn
in
humidity
%
barometer
mb
20260504044736 71 68 3.0 9.0 0.00 0.00 0.00 87 1014.7
20260504043837 71 57 2.0 7.0 0.00 0.00 0.00 86 1015.5
20260504042935 71 61 2.0 5.0 0.00 0.00 0.00 86 1015.5
20260504040236 71 65 3.0 7.0 0.00 0.00 0.00 86 1015.3
20260504035335 71 63 2.0 5.0 0.00 0.00 0.00 86 1015.5
20260504034435 71 70 2.0 8.0 0.00 0.00 0.00 86 1015.7
20260504033536 71 67 3.0 6.0 0.00 0.00 0.00 86 1015.5
20260504030836 71 70 2.0 7.0 0.00 0.04 0.00 87 1015.8
20260504025936 71 56 2.0 6.0 0.00 0.04 0.00 87 1015.7
20260504024136 71 65 3.0 7.0 0.00 0.05 0.00 87 1015.6
20260504023235 71 63 3.0 9.0 0.00 0.07 0.00 87 1015.7
20260504022336 71 65 3.0 10.0 0.00 0.10 0.00 87 1015.8
20260504020536 71 65 2.0 10.0 0.00 0.14 0.00 87 1015.8
20260504014736 71 67 3.0 9.0 0.00 0.27 0.00 86 1015.6
20260504012936 71 65 3.0 9.0 0.00 0.29 0.00 87 1015.2
20260504011136 71 65 4.0 8.0 0.00 0.29 0.00 86 1015.2
20260504010236 71 68 4.0 11.0 0.00 0.30 0.00 85 1015.1
20260504005336 72 63 4.0 10.0 0.00 0.34 0.00 83 1015.2
20260504003536 72 61 4.0 9.0 0.00 0.37 0.00 84 1014.9
20260504002636 72 59 3.0 8.0 0.00 0.38 0.00 86 1014.5
20260504000836 72 67 3.0 9.0 0.00 0.38 0.00 86 1014.6
20260503235936 72 61 3.0 7.0 0.00 0.39 0.00 86 1014.5
20260503235036 72 64 2.0 8.0 0.00 0.39 0.00 86 1014.4
20260503234136 73 64 3.0 8.0 0.00 0.43 0.00 85 1014.3
20260503233236 73 63 4.0 13.0 0.00 0.47 0.00 84 1014.1
20260503232336 73 61 4.0 11.0 0.00 0.54 0.00 84 1014.0
20260503231436 73 65 5.0 13.0 0.00 0.54 0.00 85 1013.9
20260503230536 73 61 4.0 10.0 0.00 0.54 0.00 85 1013.9
20260503225636 74 66 3.0 9.0 0.00 0.54 0.00 84 1013.8
20260503224736 74 59 3.0 9.0 0.00 0.54 0.00 84 1013.6
20260503223836 74 67 3.0 8.0 0.00 0.54 0.00 84 1013.6
20260503222936 74 65 3.0 8.0 0.00 0.56 0.00 83 1013.6
20260503222035 74 65 4.0 10.0 0.00 0.56 0.00 83 1013.6
20260503221136 74 65 3.0 9.0 0.00 0.56 0.00 83 1013.6
20260503215336 75 65 4.0 10.0 0.00 0.56 0.00 81 1013.5
20260503214436 75 55 2.0 8.0 0.00 0.56 0.00 81 1013.6
20260503212636 75 62 3.0 10.0 0.00 0.56 0.00 81 1013.8
20260503211736 75 60 2.0 9.0 0.00 0.56 0.00 82 1014.0
20260503205936 75 67 4.0 11.0 0.00 0.56 0.00 80 1013.9
20260503205035 75 64 3.0 8.0 0.00 0.56 0.00 81 1014.1
20260503204136 75 63 3.0 11.0 0.00 0.56 0.00 82 1014.0
20260503203235 75 70 2.0 7.0 0.00 0.56 0.00 81 1014.2
20260503202335 75 65 4.0 10.0 0.00 0.56 0.00 81 1014.3
20260503201436 76 66 3.0 8.0 0.00 0.56 0.00 80 1014.2
20260503200535 76 65 3.0 8.0 0.00 0.56 0.00 81 1014.2
20260503195636 76 67 4.0 10.0 0.00 0.56 0.00 80 1014.4
20260503194735 76 62 3.0 11.0 0.00 0.56 0.00 80 1014.4
20260503193835 77 62 4.0 10.0 0.00 0.56 0.00 79 1014.5
20260503191135 77 68 4.0 9.0 0.00 0.56 0.00 77 1014.9
20260503190236 77 75 3.0 8.0 0.00 0.56 0.00 78 1015.0
20260503185335 77 64 3.0 8.0 0.00 0.56 0.00 79 1015.0
20260503183535 77 61 4.0 11.0 0.00 0.56 0.00 76 1015.3
20260503182636 77 56 4.0 13.0 0.00 0.56 0.00 79 1015.4
20260503181736 76 63 4.0 10.0 0.00 0.56 0.00 80 1015.4
20260503180836 76 60 5.0 12.0 0.00 0.56 0.00 79 1015.3
20260503175936 76 60 4.0 15.0 0.00 0.56 0.00 79 1015.3
20260503175035 76 59 5.0 14.0 0.00 0.56 0.00 80 1015.4
20260503174135 75 67 5.0 14.0 0.00 0.56 0.00 81 1015.3
20260503171435 73 61 5.0 12.0 0.00 0.56 0.00 84 1015.8
20260503150835 69 67 4.0 10.0 0.00 0.56 0.00 90 1016.7
20260503131135 72 33 3.0 12.0 0.00 0.56 0.00 92 1015.1
20260503130235 72 58 3.0 9.0 0.00 0.56 0.00 93 1014.9
20260503110535 74 40 2.0 9.0 0.00 0.56 0.00 92 1013.4
20260503081446 74 0 0.0 2.0 0.00 0.56 0.00 92 1012.8
20260503072046 74 0 0.0 1.0 0.00 0.56 0.00 92 1012.7
20260503071146 74 0 0.0 2.0 0.00 0.56 0.00 92 1012.7
20260503070246 74 0 0.0 2.0 0.00 0.56 0.00 93 1012.8
20260503055046 73 0 0.0 0.0 0.00 0.56 0.00 93 1013.2
20260503054146 73 0 0.0 0.0 0.00 0.56 0.00 93 1013.3
20260503053246 73 0 0.0 1.0 0.00 0.56 0.00 93 1013.4
20260503052346 73 0 0.0 2.0 0.00 0.56 0.00 93 1013.6
20260503051446 73 0 0.0 1.0 0.00 0.56 0.00 92 1013.4
20260503050546 73 0 0.0 2.0 0.00 0.56 0.00 92 1013.6
20260503045646 74 213 2.0 4.0 0.00 0.56 0.00 91 1013.6